View from above orbital plane
|
View from above satellite
|
Ground track
|
The orbit data is extracted from the following two-line orbital elements,
1 00050U 60009B 21057.94657855 -.00000087 00000-0 -13891-4 0 9997
2 00050 47.2328 51.4097 0113672 3.7422 356.4195 12.20114973701299
Epoch (UTC): | 26 February 2021 22:43:04 |
Eccentricity: | 0.0113672 |
inclination: | 47.2328° |
perigee height: | 1501 km |
apogee height: | 1682 km |
right ascension of ascending node: | 51.4097° |
argument of perigee: | 3.7422° |
revolutions per day: | 12.20114973 |
mean anomaly at epoch: | 356.4195° |
orbit number at epoch: | 70129 |
The dashed part of the orbit path shows where the satellite is in the earth's shadow,
|
|